User: anonymous   Login
Location: Maiden
(35.5760°N, 81.2120°W)
Time: 16:04:48
(UTC-04:00)
Language:

Cosmos 2151 - Orbit

View from above orbital plane
View from above orbital plane
View from above satellite
View from above satellite

Ground track
Ground track

The orbit data is extracted from the following two-line orbital elements,

1 21422U 91042A   15147.78241643  .00000587  00000-0  56587-4 0  9995
2 21422 082.5022 241.1834 0012890 283.7270 076.2514 14.91167084296490
Epoch (UTC): 27 May 2015 18:46:40
Eccentricity: 0.0012890
inclination: 82.5022°
perigee height: 585 km
apogee height: 603 km
right ascension of ascending node: 241.1834°
argument of perigee: 283.7270°
revolutions per day: 14.91167084
mean anomaly at epoch: 76.2514°
orbit number at epoch: 29649

The dashed part of the orbit path shows where the satellite is in the earth's shadow,  

DLR